Find Rassvet-3 No. 6

NORAD ID: 68365 Int'l Des: 2026-061 Owner: B1440 Country: RU Constellation: Rassvet operational
LEOCIRCULARPOLAR

Live-Position

3D-Globus wird geladen...

Über Rassvet-3 No. 6

Beschreibung wird geladen...

Nächste Überflüge

Passes for default location (London). Set your location on the main map for personalized predictions.

Höhenverlauf

Loading altitude history...

Zweizeiliger Elementsatz

1 68365U 26061F 26130.34433137 .00025036 00000-0 18803-3 0 9992
2 68365 82.2958 54.9873 0006433 99.4049 260.7941 15.72395525 7551
Epoch: 10. Mai 2026 • Age: 15 hours

Aktueller Status

Höhe 359.9 km
Geschwindigkeit 7.69 km/s
Subsatellitenpunkt -17.96°S, 25.34°E
Startdatum 23. März 2026
Alter 0.1 years
Typ other

Technische Details

Klassifizierung Payload
Masse 370.00 kg
Trockenmasse 370.00 kg
Gesamtmasse 370.00 kg
Länge 4.00 m
Durchmesser 1.00 m
Spannweite 10.00 m
Form Box+1 pan
Hersteller B1440
Bus-Typ Rassvet-2
Phasenstatus In Orbit
Besitzer/Staat B1440/RU

Most Searched